[[{"header":{"parameterUnit":"m.s-1","parameterCategory":1,"la1":30.2991,"la2":30.254,"lo1":-89.0895,"lo2":-89.0444,"dy":0.0017,"dx":0.0017,"nx":28,"ny":28,"refTime":"2023-08-27T09:00:00:Z","depth":0,"parameterNumber":2,"parameterNumberName":"U-component_of_WINDS"},"data":[0,0,0,0,0,0,0,0,0,0,0,0,0,0,0,0,0,0,0,0,0,0,0,0,0,0,0,0,0,0,0,0,0,0,0,0,0,0,0,0,0,0,0,0,0,0,0,0,0,0,0,0,0,0,0,0,0,0,-1.1002,-1.1002,0,-1.0923,-1.0922,-1.0921,-1.0852,-1.0851,-1.085,-1.085,-1.0765,-1.0764,-1.0762,0,0,0,0,0,0,0,0,0,0,0,0,0,-1.1092,-1.1091,-1.1003,-1.1002,-1.1001,-1.0923,-1.0922,-1.0921,-1.0852,-1.0851,-1.085,-1.0849,-1.0766,-1.0764,-1.0762,0,0,0,0,0,0,0,0,0,0,0,0,0,-1.1037,-1.1091,-1.1003,-1.0957,-1.0952,-1.0924,-1.0922,-1.0921,-1.0852,-1.0851,-1.085,-1.0849,-1.0766,-1.0764,-1.0762,-1.0772,0,0,-1.0755,-1.0754,0,0,0,0,0,0,0,0,-1.104,-1.1034,-1.0965,-1.096,-1.0954,-1.0896,-1.0923,-1.0871,-1.0853,-1.089,-1.085,-1.0848,-1.081,-1.0804,-1.0791,-1.0768,-1.0764,-1.0755,-1.0754,-1.0753,-1.0752,0,0,0,0,0,0,0,-1.1044,-1.1037,-1.0971,-1.0964,-1.0957,-1.094,-1.0931,-1.0913,-1.0857,-1.0887,-1.0881,-1.0873,-1.0807,-1.0794,-1.0789,-1.0763,-1.0755,-1.0753,-1.0752,-1.0751,-1.0745,-1.0746,0,0,0,0,0,0,-1.1056,-1.1041,-1.0974,-1.0969,-1.0996,-1.0939,-1.0929,-1.0916,-1.0857,-1.0847,-1.0874,-1.087,-1.0798,-1.0792,-1.0786,-1.0794,-1.0753,-1.075,-1.0749,-1.0743,-1.0745,-1.0746,0,0,0,0,0,0,-1.1058,-1.105,-1.0977,-1.1003,-1.0993,-1.0939,-1.0925,-1.0915,-1.0902,-1.0848,-1.0838,-1.0871,-1.0797,-1.0789,-1.0776,-1.079,-1.0749,-1.0747,-1.0742,-1.0744,-1.0745,-1.081,0,0,0,0,0,0,-1.1061,-1.1051,-1.1055,-1.1004,-1.0991,-1.0969,-1.0926,-1.0915,-1.0899,-1.0893,-1.0843,-1.0833,-1.0795,-1.078,-1.0774,-1.0786,-1.0746,-1.074,-1.0743,-1.0745,-1.0806,-1.0813,-1.082,0,0,0,0,0,-1.1064,-1.1075,-1.1055,-1.1048,-1.0995,-1.097,-1.0963,-1.092,-1.09,-1.0903,-1.0869,-1.0835,-1.079,-1.0779,-1.0772,-1.0783,-1.0739,-1.0742,-1.0745,-1.0803,-1.0812,-1.082,0,0,0,0,0,0,-1.1127,-1.1067,-1.1045,-1.104,-1.1011,-1.0958,-1.096,-1.0931,-1.0906,-1.0901,-1.0849,-1.0838,-1.0831,-1.0806,-1.0796,-1.079,-1.076,-1.0761,-1.0807,-1.0815,-1.0822,-1.0827,-1.0744,0,0,0,0,0,-1.1141,-1.1127,-1.1075,-1.1075,-1.1062,-1.1014,-1.1002,-1.0972,-1.0939,-1.0926,-1.0891,-1.086,-1.0838,-1.0825,-1.0803,-1.0803,-1.0791,-1.0807,-1.0814,-1.082,-1.0821,-1.082,-1.0827,-1.0755,-1.0755,-1.0755,0,0,-1.1168,-1.1134,-1.1128,-1.1087,-1.1061,-1.1047,-1.1004,-1.0991,-1.098,-1.0924,-1.091,-1.0883,-1.0845,-1.0839,-1.0835,-1.0818,-1.0839,-1.0823,-1.0828,-1.0826,-1.0824,-1.083,-1.0836,-1.0757,-1.0756,-1.0756,0,0,-1.1211,-1.1184,-1.1181,-1.1157,-1.1119,-1.1087,-1.1087,-1.104,-1.102,-1.1006,-1.0964,-1.095,-1.0915,-1.0889,-1.0872,-1.0908,-1.0876,-1.0903,-1.0938,-1.0937,-1.0943,-1.0948,-1.0961,-1.0966,-1.0904,-1.0905,-1.0905,0,-1.1249,-1.1227,-1.1184,-1.1174,-1.1157,-1.1108,-1.1105,-1.1083,-1.104,-1.1029,-1.1012,-1.0967,-1.0938,-1.0926,-1.0935,-1.0923,-1.0921,-1.0907,-1.0946,-1.095,-1.0954,-1.0966,-1.0971,-1.0908,-1.0908,-1.0907,-1.0907,0,-1.1276,-1.1262,-1.1265,-1.1226,-1.121,-1.1203,-1.1159,-1.1148,-1.112,-1.1091,-1.1077,-1.1041,-1.1011,-1.1006,-1.0978,-1.099,-1.0981,-1.0956,-1.0924,-1.0965,-1.0975,-1.0979,-1.0913,-1.0912,-1.0911,-1.091,0,0,-1.1354,-1.1293,-1.1295,-1.1277,-1.1232,-1.122,-1.1212,-1.1184,-1.1176,-1.1148,-1.114,-1.1112,-1.1089,-1.1069,-1.1038,-1.1038,-1.107,-1.1012,-1.1011,-1.1024,-1.1082,-1.1101,-1.1107,-1.1049,-1.105,-1.105,-1.1085,0,-1.1389,-1.1372,-1.1334,-1.1329,-1.1316,-1.127,-1.1263,-1.1235,-1.1208,-1.1192,-1.1161,-1.1143,-1.1113,-1.1102,-1.11,-1.1067,-1.1081,-1.1064,-1.104,-1.104,-1.105,-1.1112,-1.1131,-1.1166,-1.1089,-1.1089,-1.109,0,-1.1426,-1.1403,-1.1398,-1.1356,-1.1348,-1.1343,-1.1315,-1.1301,-1.1268,-1.1249,-1.1229,-1.1195,-1.1184,-1.1157,-1.1141,-1.113,-1.1119,-1.1102,-1.1102,-1.1097,-1.1067,-1.1108,-1.1175,-1.118,-1.1095,-1.1095,-1.1095,0,-1.1483,-1.1451,-1.1443,-1.143,-1.138,-1.1378,-1.1357,-1.1324,-1.131,-1.1286,-1.1276,-1.1251,-1.1237,-1.1218,-1.1178,-1.1162,-1.1167,-1.1136,-1.115,-1.1151,-1.1152,-1.1152,-1.1218,-1.1146,-1.1146,-1.1146,-1.1146,0,-1.1526,-1.1524,-1.1469,-1.1464,-1.1461,-1.1418,-1.1416,-1.1391,-1.1362,-1.1351,-1.1311,-1.1301,-1.1251,-1.1236,-1.1205,-1.1197,-1.1191,-1.1175,-1.1166,-1.1178,-1.118,-1.1168,-1.1165,-1.1148,-1.1147,-1.1147,-1.1147,0,-1.1588,-1.1551,-1.154,-1.1495,-1.1484,-1.1484,-1.1445,-1.1439,-1.1411,-1.1398,-1.1393,-1.1348,-1.1328,-1.1288,-1.1257,-1.1237,-1.1236,-1.1221,-1.1247,-1.1242,-1.1258,-1.1257,-1.1318,-1.1323,-1.125,-1.1251,-1.1251,0,-1.1616,-1.1614,-1.157,-1.1561,-1.1543,-1.1528,-1.1514,-1.1472,-1.146,-1.1425,-1.1423,-1.1401,-1.138,-1.1352,-1.1316,-1.1293,-1.1277,-1.13,-1.1273,-1.1285,-1.1277,-1.1277,-1.1277,-1.1306,-1.1307,-1.1307,-1.1308,0,-1.1671,-1.1654,-1.1636,-1.1613,-1.1599,-1.1578,-1.1555,-1.155,-1.1502,-1.149,-1.1471,-1.1456,-1.1426,-1.1404,-1.1376,-1.1354,-1.1323,-1.1318,-1.1319,-1.133,-1.1345,-1.1337,-1.1263,-1.1316,-1.1315,-1.1314,-1.1314,-1.1314,-1.1717,-1.1713,-1.1683,-1.1665,-1.1644,-1.1624,-1.1616,-1.1588,-1.1572,-1.1545,-1.1521,-1.1504,-1.1473,-1.1433,-1.1413,-1.1399,-1.1384,-1.1387,-1.1387,-1.1388,-1.1393,-1.1349,-1.1394,-1.1394,-1.1393,-1.1393,-1.1393,0,-1.1769,-1.1748,-1.1732,-1.1703,-1.1689,-1.1664,-1.1637,-1.1627,-1.1613,-1.1588,-1.157,-1.1548,-1.1528,-1.1492,-1.1469,-1.1465,-1.145,-1.146,-1.1459,-1.1455,-1.1408,-1.1409,-1.1472,-1.1472,-1.1472,-1.1472,-1.1472,-1.1472,-1.1795,-1.1788,-1.1767,-1.175,-1.1728,-1.1712,-1.1699,-1.1681,-1.1661,-1.1639,-1.1623,-1.16,-1.157,-1.1545,-1.1525,-1.1515,-1.1508,-1.1523,-1.1508,-1.1465,-1.1458,-1.145,-1.1451,-1.1522,-1.1522,-1.1555,-1.1556,-1.1556]},{"header":{"parameterUnit":"m.s-1","parameterCategory":1,"la1":30.2991,"la2":30.254,"lo1":-89.0895,"lo2":-89.0444,"dy":0.0017,"dx":0.0017,"nx":28,"ny":28,"refTime":"2023-08-27T09:00:00:Z","depth":0,"parameterNumber":3,"parameterNumberName":"V-component_of_WINDS"},"data":[0,0,0,0,0,0,0,0,0,0,0,0,0,0,0,0,0,0,0,0,0,0,0,0,0,0,0,0,0,0,0,0,0,0,0,0,0,0,0,0,0,0,0,0,0,0,0,0,0,0,0,0,0,0,0,0,0,0,0.8781,0.8781,0,0.8808,0.8808,0.8809,0.8814,0.8813,0.8813,0.8813,0.8838,0.8838,0.8839,0,0,0,0,0,0,0,0,0,0,0,0,0,0.873,0.8731,0.8781,0.8781,0.8782,0.8808,0.8808,0.8809,0.8814,0.8813,0.8813,0.8813,0.8837,0.8838,0.8839,0,0,0,0,0,0,0,0,0,0,0,0,0,0.8754,0.8731,0.8781,0.8787,0.8788,0.8808,0.8808,0.8809,0.8814,0.8813,0.8813,0.8813,0.8837,0.8838,0.884,0.8854,0,0,0.8843,0.8844,0,0,0,0,0,0,0,0,0.8752,0.8756,0.8786,0.8787,0.8788,0.8807,0.8799,0.8824,0.8814,0.8804,0.8813,0.8813,0.8828,0.883,0.8835,0.8855,0.8856,0.8844,0.8844,0.8845,0.8845,0,0,0,0,0,0,0,0.8751,0.8754,0.8792,0.8787,0.8788,0.8788,0.8791,0.8804,0.8817,0.8805,0.8805,0.8808,0.8828,0.8834,0.8836,0.8856,0.8844,0.8845,0.8845,0.8846,0.8886,0.8886,0,0,0,0,0,0,0.8748,0.8753,0.8791,0.8792,0.8769,0.8789,0.8792,0.8801,0.8817,0.8819,0.8809,0.8809,0.8832,0.8834,0.8837,0.8853,0.8845,0.8846,0.8847,0.8886,0.8886,0.8886,0,0,0,0,0,0,0.8747,0.8752,0.879,0.8773,0.8778,0.879,0.88,0.8802,0.8808,0.882,0.8822,0.8813,0.8832,0.8835,0.8849,0.8854,0.8847,0.8848,0.8885,0.8886,0.8886,0.8886,0,0,0,0,0,0,0.8746,0.8751,0.8758,0.8773,0.8779,0.8803,0.8801,0.8803,0.8811,0.8811,0.8824,0.8826,0.8832,0.8847,0.885,0.8855,0.8849,0.8885,0.8886,0.8886,0.8886,0.8886,0.8887,0,0,0,0,0,0.8744,0.8757,0.8758,0.8763,0.8788,0.8803,0.8806,0.8813,0.8811,0.8817,0.8824,0.8826,0.8853,0.8849,0.8852,0.8858,0.8885,0.8885,0.8886,0.8885,0.8886,0.8887,0,0,0,0,0,0,0.8742,0.8759,0.8761,0.8779,0.879,0.8804,0.8812,0.8814,0.8825,0.8825,0.8832,0.8835,0.8848,0.8854,0.8849,0.8871,0.8868,0.887,0.8867,0.8868,0.8868,0.8866,0.885,0,0,0,0,0,0.8743,0.8756,0.877,0.8785,0.879,0.88,0.8807,0.8811,0.8822,0.8827,0.8835,0.8844,0.8855,0.8862,0.8872,0.8886,0.8888,0.8892,0.8892,0.8893,0.8894,0.89,0.8901,0.8889,0.8889,0.8889,0,0,0.8747,0.8758,0.8766,0.8785,0.8793,0.8804,0.8804,0.8816,0.8824,0.8828,0.8842,0.8848,0.8859,0.8873,0.8879,0.8878,0.8898,0.8894,0.8894,0.8895,0.8901,0.8902,0.8903,0.8889,0.8889,0.8889,0,0,0.8759,0.877,0.8782,0.879,0.8803,0.881,0.8813,0.8826,0.8831,0.8845,0.8847,0.8856,0.8874,0.8881,0.8887,0.8899,0.8901,0.8902,0.8906,0.8912,0.8913,0.8914,0.8917,0.8918,0.8903,0.8903,0.8903,0,0.8762,0.878,0.8788,0.88,0.8807,0.8811,0.8823,0.883,0.8846,0.885,0.8849,0.8871,0.8878,0.8893,0.8896,0.8901,0.8903,0.8901,0.8912,0.8913,0.8914,0.8917,0.8918,0.8904,0.8904,0.8904,0.8904,0,0.8782,0.8794,0.8802,0.8817,0.8825,0.8837,0.8845,0.8852,0.8855,0.8861,0.8874,0.8883,0.8894,0.8898,0.8901,0.8912,0.8911,0.8911,0.8909,0.8915,0.8918,0.8919,0.8904,0.8904,0.8904,0.8904,0,0,0.8794,0.8812,0.8815,0.8821,0.8835,0.8844,0.8854,0.8866,0.8871,0.8881,0.8889,0.8903,0.8903,0.8909,0.8913,0.8918,0.8925,0.8917,0.8918,0.8918,0.8936,0.8936,0.8937,0.8926,0.8926,0.8927,0.8935,0,0.8807,0.8828,0.8834,0.885,0.886,0.8864,0.8873,0.8881,0.8886,0.8895,0.89,0.8909,0.8909,0.8912,0.8918,0.8923,0.8929,0.8923,0.8932,0.8933,0.8929,0.8939,0.8939,0.8947,0.8936,0.8937,0.8937,0,0.8825,0.8835,0.8853,0.8863,0.8868,0.8876,0.8886,0.8895,0.8903,0.8906,0.8913,0.8916,0.8925,0.8922,0.8934,0.893,0.8934,0.8937,0.8938,0.8938,0.8935,0.8939,0.895,0.895,0.8939,0.8939,0.8939,0,0.8831,0.8849,0.8861,0.8866,0.8879,0.8884,0.889,0.8899,0.8904,0.8913,0.8916,0.8925,0.893,0.8936,0.8941,0.8939,0.8952,0.895,0.8954,0.8954,0.8956,0.8956,0.8967,0.896,0.896,0.896,0.896,0,0.8844,0.8854,0.8864,0.8871,0.8882,0.8888,0.8898,0.8903,0.8911,0.8918,0.8921,0.8928,0.8934,0.8941,0.8944,0.8953,0.8955,0.8957,0.8958,0.8956,0.8956,0.8959,0.8958,0.896,0.896,0.896,0.896,0,0.8852,0.8859,0.8872,0.8883,0.8886,0.8893,0.8902,0.8908,0.8913,0.8922,0.8925,0.8932,0.894,0.8945,0.8956,0.8958,0.8967,0.8968,0.8964,0.8964,0.8968,0.8967,0.898,0.8982,0.8975,0.8975,0.8975,0,0.886,0.8868,0.8879,0.8884,0.889,0.8899,0.8905,0.891,0.8916,0.8925,0.893,0.8939,0.8946,0.8958,0.8964,0.8971,0.8972,0.8976,0.8973,0.8971,0.8971,0.897,0.897,0.8976,0.8976,0.8976,0.8976,0,0.8872,0.8875,0.8884,0.8893,0.89,0.8907,0.8915,0.8919,0.8925,0.8931,0.894,0.8945,0.8956,0.8963,0.8971,0.8975,0.8976,0.8977,0.8978,0.8977,0.8974,0.8975,0.8965,0.8977,0.8977,0.8977,0.8977,0.8977,0.888,0.8886,0.8895,0.8904,0.891,0.8916,0.8922,0.8928,0.8935,0.8944,0.8947,0.8955,0.8962,0.8972,0.8977,0.8982,0.8982,0.8984,0.8984,0.8984,0.8984,0.8974,0.8984,0.8984,0.8984,0.8984,0.8984,0,0.8891,0.8896,0.8905,0.8915,0.8921,0.8922,0.893,0.8935,0.8943,0.8949,0.8956,0.8965,0.8972,0.8978,0.8985,0.8988,0.8989,0.899,0.8989,0.899,0.8985,0.8983,0.8989,0.8989,0.8989,0.8989,0.8989,0.8989,0.8898,0.8908,0.8911,0.8924,0.8929,0.8938,0.8942,0.8947,0.8952,0.8962,0.8969,0.8972,0.8978,0.8985,0.8991,0.8992,0.8995,0.8995,0.8997,0.8991,0.8991,0.899,0.8988,0.8996,0.8996,0.9001,0.9002,0.9002]}]]